Theta_e
315 321 322 324 322 319 325 329 328 327 340 340 339 344 347 352 363 364 357 356 349 354 345 347 345 342 340 337 336 334 328 329 334 338 340 341 338 335 331 330 334 338 340 338 337 337 334 329 326
315 323 321 316 321 323 324 322 325 323 336 341 342 343 344 352 354 358 357 356 349 346 345 346 345 343 341 339 337 335 328 329 333 335 335 335 334 330 328 331 334 337 340 338 337 337 333 325 322
317 323 317 318 318 324 325 323 321 322 331 331 339 338 342 350 352 357 356 357 352 346 346 345 345 343 342 341 337 336 330 329 333 331 330 332 331 328 328 332 335 337 339 340 337 334 335 326 323
320 315 313 320 323 322 324 321 320 321 323 329 336 340 338 339 348 356 355 352 346 346 345 345 344 343 342 342 339 337 332 329 332 330 329 330 331 330 331 333 334 335 335 337 339 336 328 329 323
317 313 318 319 321 321 320 319 318 321 326 333 335 339 340 336 355 357 356 349 347 345 345 343 342 341 341 342 342 338 335 330 331 331 329 328 331 332 331 333 334 335 336 337 339 335 325 328 323
314 314 321 322 322 320 319 317 317 318 320 321 331 327 327 324 358 359 357 351 348 346 345 344 342 340 339 340 342 340 337 332 331 333 329 328 330 334 335 339 340 340 341 340 338 330 324 323 322
314 314 320 321 322 321 320 315 318 318 319 319 323 323 321 321 333 359 358 353 350 348 347 347 344 340 338 339 341 342 339 334 332 333 332 329 329 334 338 342 343 342 342 340 336 331 325 323 322
310 312 318 317 318 320 318 316 316 316 319 317 319 322 323 319 320 357 360 357 355 353 350 348 346 345 341 340 341 342 340 337 333 334 335 332 330 332 338 341 344 344 343 340 337 334 329 324 323
311 313 315 318 319 319 315 316 316 315 316 316 317 317 316 319 321 353 360 359 359 358 354 350 347 344 344 343 342 342 342 340 335 336 336 335 333 331 333 339 342 343 342 341 339 336 331 327 325
312 311 314 316 316 316 316 316 316 316 314 316 315 315 316 318 318 320 333 356 359 359 358 355 350 346 344 342 344 345 343 341 338 336 338 338 336 334 333 334 339 343 342 341 340 337 335 331 327
311 312 312 315 315 315 316 316 315 315 316 315 315 314 314 315 316 316 318 325 326 333 356 358 355 349 346 346 345 347 347 345 343 340 340 341 340 338 336 334 334 338 342 342 341 339 337 336 331
314 313 313 314 315 315 316 315 315 315 314 314 313 313 313 314 315 316 316 314 324 337 343 357 358 354 348 347 345 346 348 346 346 342 342 344 343 341 340 337 335 336 337 338 339 339 337 336 335
313 314 313 314 313 313 314 315 314 313 312 312 313 314 313 312 313 316 316 316 317 327 346 356 358 357 354 347 345 343 341 340 341 341 341 344 344 343 343 341 339 337 336 337 337 336 336 336 336
314 314 313 312 313 312 314 314 314 314 314 314 314 313 313 311 312 314 316 317 317 323 349 356 357 356 353 348 345 344 343 342 341 341 341 340 341 342 343 343 342 340 338 337 335 334 337 337 337
314 314 311 313 312 313 311 314 314 313 312 313 314 313 313 313 313 314 317 317 318 318 321 339 354 354 351 348 346 347 347 347 346 345 345 344 343 343 343 343 343 342 342 342 341 340 339 340 340
313 310 312 312 312 313 312 313 313 311 312 312 312 312 312 312 312 315 317 316 318 318 320 328 348 354 352 351 350 351 350 349 347 348 349 349 348 346 345 347 345 343 343 344 344 343 342 342 342
308 313 313 311 309 313 314 314 313 311 313 314 313 312 312 312 313 316 316 316 316 317 319 332 349 353 353 352 353 352 351 350 348 347 347 348 348 347 346 345 345 345 343 343 344 344 343 342 343
312 312 312 312 311 314 314 312 312 313 313 313 312 312 312 312 312 314 317 316 316 317 317 321 323 324 328 334 337 334 328 323 323 324 326 327 330 334 343 345 345 344 344 343 344 344 344 343 343
312 312 313 312 314 315 315 313 312 311 312 311 311 312 312 315 314 319 319 318 318 322 324 322 324 325 324 322 322 323 324 322 323 325 326 327 327 328 331 335 343 345 341 339 343 345 344 344 344
314 315 315 314 315 315 313 314 313 314 315 314 313 313 313 315 317 318 320 322 323 324 323 324 324 324 323 323 324 325 325 326 325 323 323 324 325 325 327 332 339 339 342 343 344 344 343 343 342
316 315 315 315 315 313 314 313 313 316 318 317 315 315 315 316 317 316 317 320 322 323 323 323 324 324 324 324 324 324 323 322 322 323 324 324 324 326 331 334 333 340 342 344 344 344 343 341 340
317 315 315 316 314 314 313 314 313 316 319 317 315 314 314 314 314 314 315 319 323 326 327 326 326 326 326 325 324 323 323 324 323 323 321 319 319 320 324 332 335 339 342 342 344 342 343 342 340
315 315 315 315 315 314 314 314 313 319 322 320 317 316 314 313 313 313 312 315 317 321 323 320 321 320 319 318 320 322 321 321 321 321 319 318 317 316 323 328 335 337 339 341 341 343 344 342 340
314 314 311 310 310 314 314 315 312 320 321 321 318 317 315 313 312 311 313 314 314 314 314 314 314 314 314 314 314 315 316 318 319 319 320 318 317 316 324 327 332 335 337 335 333 333 333 332 335
311 312 312 309 314 315 314 315 311 317 320 319 317 316 314 312 311 311 310 311 313 313 313 313 313 313 313 313 313 313 313 312 312 313 314 315 319 318 318 321 328 332 332 333 338 340 340 338 337
314 313 313 317 318 317 315 318 314 319 319 319 317 316 316 314 310 311 310 310 311 312 312 312 312 312 312 312 312 312 312 311 311 311 311 312 313 318 318 321 324 329 331 333 333 328 334 337 336
315 314 313 316 316 317 316 315 320 321 319 319 317 317 317 316 313 312 311 310 311 311 311 312 312 311 311 310 310 310 310 310 310 311 311 311 311 314 315 321 322 322 326 329 334 334 334 336 336
314 313 315 312 319 321 318 317 321 322 319 318 319 318 315 314 313 309 308 309 310 310 310 311 311 310 310 310 309 308 307 308 308 309 310 310 311 313 314 320 321 318 319 327 332 335 334 336 336
311 312 312 312 313 318 320 319 312 315 316 317 314 314 313 313 309 307 306 309 310 309 310 310 310 310 310 309 308 307 307 307 308 308 309 310 310 312 313 316 320 321 320 326 331 334 335 336 335
313 313 311 309 314 311 311 318 315 314 312 311 310 309 312 309 308 307 307 308 308 309 309 310 310 309 309 308 307 307 306 306 307 307 309 310 310 311 313 321 322 321 323 328 331 334 333 334 331
Wind_Speed
13 12 5 4 4 5 4 3 2 10 7 3 7 4 5 1 2 3 1 17 12 31 28 24 22 20 20 18 18 17 17 20 21 22 22 22 23 23 23 24 24 21 18 15 14 14 13 13 13
15 2 3 2 4 3 5 5 6 6 4 10 10 5 3 2 2 3 5 18 17 32 28 26 23 21 20 19 17 17 17 20 20 20 22 23 23 23 23 23 22 19 17 14 14 13 12 12 14
8 2 3 4 3 2 4 5 7 2 8 4 4 3 3 2 2 8 5 20 25 29 27 26 24 21 20 19 18 17 17 19 20 20 22 23 22 22 22 21 19 17 15 14 13 12 12 12 14
4 5 4 4 2 4 4 8 9 1 0 4 1 5 3 2 5 7 17 22 32 29 27 26 24 22 20 18 18 17 17 18 19 19 20 21 21 21 20 19 18 16 14 13 12 11 12 13 15
4 3 3 3 3 5 5 7 9 6 5 5 3 2 3 5 5 14 21 25 29 29 27 25 24 22 20 19 19 18 17 18 18 19 20 21 20 19 18 17 16 15 15 14 12 11 12 14 15
4 3 4 1 2 6 6 7 6 6 5 4 6 3 2 2 9 13 19 25 26 29 28 27 25 23 21 20 20 19 17 17 17 18 19 20 19 19 18 16 15 15 14 13 12 11 12 13 14
5 4 3 2 1 3 3 9 4 4 3 5 4 3 3 2 5 17 21 21 23 24 25 24 24 22 22 22 21 20 19 18 17 17 17 18 19 19 18 16 15 15 14 13 12 12 12 13 14
4 4 2 4 2 3 3 5 2 6 3 5 3 2 2 5 5 15 18 19 19 21 24 25 24 21 21 21 21 20 19 18 17 16 16 16 17 18 18 16 15 14 13 13 13 12 12 13 14
3 4 4 4 5 1 4 5 5 3 3 4 3 3 5 8 13 13 12 13 15 16 21 25 25 24 22 21 21 20 19 18 17 16 15 16 17 18 19 18 17 16 14 14 14 13 13 14 15
4 3 7 5 5 1 3 1 2 4 6 2 1 1 10 10 10 13 7 11 14 19 21 22 24 25 23 22 21 21 21 21 20 20 18 18 18 18 19 19 19 18 16 15 15 15 15 15 16
3 5 5 5 3 2 3 2 1 1 3 3 4 7 3 3 3 5 10 8 4 8 20 25 23 24 22 21 22 21 21 20 21 20 20 20 19 19 20 21 22 21 19 19 19 19 19 19 19
2 7 5 6 1 1 3 1 3 2 6 5 5 4 4 3 4 4 1 8 3 5 6 18 24 23 22 23 21 20 19 19 19 21 21 20 21 22 23 24 23 23 24 24 24 23 23 22 22
3 3 4 4 5 5 3 3 3 6 9 7 6 8 7 6 4 4 4 3 3 5 11 14 19 22 22 25 23 22 21 22 22 21 21 22 21 22 23 24 25 25 26 27 29 28 27 26 26
3 3 5 6 6 4 5 3 3 9 4 8 5 8 7 7 9 7 7 9 4 3 8 10 16 17 18 23 20 20 19 21 21 19 19 21 22 24 25 27 29 29 30 30 31 31 29 29 29
3 4 6 2 3 3 4 0 6 8 6 9 10 7 8 9 9 13 15 11 9 7 8 12 16 17 18 20 18 18 18 20 19 19 17 19 21 24 27 29 31 33 33 32 31 30 30 32 32
4 5 4 5 8 5 4 6 7 7 7 10 9 9 8 11 10 17 17 16 15 10 14 13 17 19 20 20 20 21 19 18 16 14 16 17 19 21 24 30 30 32 32 32 34 34 32 33 34
7 1 1 8 7 5 4 5 6 9 9 10 9 9 9 9 8 16 18 19 16 11 11 16 17 17 19 21 20 17 13 13 12 9 14 16 19 22 24 27 29 29 29 32 33 33 32 30 33
2 1 3 3 6 7 3 6 9 11 7 11 10 10 9 9 12 18 19 18 16 10 5 8 14 10 9 9 8 8 6 4 2 4 8 10 11 15 20 27 31 27 26 27 30 31 29 31 33
2 1 1 4 2 4 4 5 11 9 6 9 10 9 6 5 6 9 10 8 11 12 14 14 15 15 11 9 6 5 6 8 12 14 14 15 14 15 18 24 29 33 33 34 35 31 27 29 33
2 2 2 5 5 3 6 7 6 6 7 6 6 4 5 6 9 11 21 23 23 23 23 20 18 13 9 6 6 5 8 6 12 16 21 24 25 24 22 22 27 32 33 33 34 30 23 21 21
1 4 2 5 4 2 5 6 7 4 7 9 10 6 9 8 8 8 11 16 18 18 16 16 14 11 8 7 6 7 10 12 14 14 13 14 18 21 20 21 25 29 31 31 32 30 27 21 21
1 4 0 4 5 2 5 4 6 3 5 6 8 9 8 9 8 8 10 15 16 14 14 14 12 10 7 5 6 6 7 7 12 13 14 16 16 18 20 22 22 27 28 26 28 30 31 29 22
4 3 4 2 2 3 4 3 7 2 1 3 6 6 7 7 8 9 9 16 17 15 14 13 12 12 11 12 11 12 13 14 14 15 17 18 18 20 20 21 21 23 24 25 24 28 31 31 26
3 4 6 5 3 1 5 5 5 4 5 2 2 2 5 6 7 7 14 16 16 14 13 12 10 11 11 12 13 15 16 18 20 21 24 23 21 20 17 20 22 22 24 27 30 28 30 29 26
7 6 4 4 3 5 4 1 8 6 6 7 8 7 5 4 6 6 6 7 8 9 8 8 8 10 12 13 14 15 18 20 22 21 22 25 26 25 23 20 20 23 24 28 28 29 31 28 25
2 5 5 4 2 4 6 6 6 7 4 2 4 5 4 5 6 5 4 4 4 6 5 4 6 8 9 9 11 14 18 23 26 27 26 26 26 25 25 23 21 20 23 26 26 25 26 27 25
1 1 3 2 1 1 5 7 6 3 5 4 7 2 4 4 1 0 0 4 5 5 5 4 6 8 11 13 14 18 21 25 28 30 32 27 27 27 24 23 24 23 23 24 23 21 24 27 26
3 3 2 3 2 5 5 6 5 7 6 6 3 4 7 6 5 2 2 5 11 10 8 8 12 14 16 19 21 23 24 27 27 26 29 29 25 27 24 22 23 26 25 24 22 19 23 23 25
3 3 3 2 5 4 3 6 6 10 9 8 7 7 9 6 1 2 5 12 15 11 8 9 12 14 17 19 20 23 26 27 26 25 26 29 26 25 24 22 22 24 26 25 23 19 20 21 22
3 4 5 4 5 3 3 12 6 4 6 8 8 10 2 3 1 3 7 13 16 11 13 17 19 19 19 21 23 27 28 29 27 26 26 27 27 24 23 20 15 19 25 24 22 19 16 17 13
Wind_Direction
338 343 145 111 43 51 289 293 268 353 316 330 119 148 174 63 181 175 151 169 175 171 174 171 170 164 156 153 148 144 145 148 150 151 152 154 155 154 154 153 153 154 154 152 153 154 152 152 152
335 32 121 88 80 12 294 275 329 351 308 107 92 119 83 75 48 103 120 179 169 166 170 171 173 169 163 159 156 151 151 154 154 155 155 156 156 156 157 157 159 160 160 158 157 157 158 154 157
333 70 89 93 110 148 282 285 301 156 242 323 115 88 114 119 91 162 218 170 174 170 171 172 175 174 170 166 163 159 157 159 160 160 160 160 160 161 161 163 165 168 171 170 166 167 167 164 165
341 19 35 87 206 258 228 287 288 227 237 8 52 56 28 311 146 176 165 167 168 172 174 176 178 178 176 173 170 167 164 164 166 167 167 166 167 168 168 169 172 176 180 181 180 179 177 174 174
24 63 57 81 266 276 273 297 322 61 94 353 4 33 54 26 124 152 165 171 175 176 178 179 182 182 182 181 179 175 174 172 173 175 175 174 174 174 174 175 178 182 183 186 191 194 190 184 183
30 86 28 141 233 277 312 337 343 51 37 352 50 52 333 58 136 165 173 178 182 182 184 185 186 187 186 187 185 183 183 181 181 183 182 181 180 181 182 184 187 189 192 197 203 203 201 195 192
107 81 233 227 228 314 356 320 38 17 38 16 135 84 276 145 185 180 177 180 186 190 190 193 193 193 190 190 190 189 187 190 188 188 190 191 190 191 192 194 197 201 204 207 211 213 212 207 202
100 89 255 254 127 251 313 358 343 38 26 296 32 124 259 77 54 194 178 181 187 191 196 198 197 197 197 194 194 194 195 195 196 195 197 199 200 203 205 207 211 216 220 223 223 226 225 221 216
105 72 241 261 166 203 320 37 322 284 48 45 58 86 302 26 92 138 154 175 192 198 203 203 202 201 200 200 198 197 198 201 202 204 204 206 208 212 215 219 222 227 233 238 237 239 238 237 233
102 140 225 229 157 121 290 349 285 21 356 354 156 2 10 27 58 110 147 176 205 217 211 213 209 207 203 202 201 202 200 203 205 206 208 212 216 219 223 228 231 235 240 244 247 248 250 249 247
165 201 222 261 244 182 245 274 269 81 330 238 294 298 7 43 24 62 153 158 233 239 220 215 214 213 209 205 202 205 205 208 210 214 216 218 223 225 229 231 234 236 238 245 248 247 248 251 251
249 245 220 277 150 159 209 305 321 240 234 254 264 242 296 179 186 184 240 182 175 191 208 211 212 212 212 213 209 212 206 217 219 220 223 228 229 230 231 233 237 239 240 242 243 247 250 253 256
184 288 300 285 268 248 201 198 229 261 260 285 288 298 265 240 230 235 233 217 222 217 209 210 209 213 211 215 217 221 225 227 232 231 230 235 242 244 243 244 243 241 244 245 248 246 248 253 257
273 255 278 283 258 248 195 224 128 269 284 302 301 276 259 222 225 200 225 261 191 151 197 212 216 217 213 215 220 226 233 237 242 243 247 249 255 255 254 253 251 248 246 247 249 252 253 255 258
273 321 335 11 345 318 178 164 216 255 16 308 304 270 253 238 242 225 237 231 246 195 191 202 210 213 216 217 225 227 235 241 243 250 259 262 261 263 261 258 256 256 256 255 255 254 256 259 260
28 53 25 294 11 323 108 275 285 10 5 316 309 308 310 292 279 267 253 243 233 221 182 188 202 208 209 211 219 231 234 236 242 254 269 272 274 273 264 265 264 264 260 260 260 259 255 257 262
7 78 319 324 27 355 53 286 293 342 348 312 303 296 287 287 299 285 277 265 252 218 193 189 186 195 206 215 222 219 225 225 239 269 273 278 280 279 267 263 265 265 264 261 258 257 256 257 260
228 79 296 276 336 3 359 274 304 287 287 273 280 288 292 295 280 296 282 264 234 230 212 180 176 166 164 160 151 155 153 144 86 2 351 343 319 304 285 273 269 262 249 259 256 252 251 253 261
163 127 314 283 304 341 242 267 263 271 274 273 257 252 279 349 356 29 92 111 145 124 128 144 145 121 126 121 125 100 31 357 346 348 352 352 341 329 314 291 274 260 255 259 249 244 244 249 254
79 107 313 294 303 309 329 306 307 344 344 322 298 356 98 64 31 26 51 84 93 102 103 102 101 103 95 69 48 25 359 353 341 330 324 323 324 321 311 305 287 270 263 254 244 245 236 241 252
71 140 244 229 305 325 331 341 333 357 2 32 34 32 52 69 62 36 45 64 80 81 89 97 97 94 85 62 24 352 335 328 331 334 339 339 333 327 318 304 298 282 268 261 253 245 241 240 241
201 202 211 338 37 276 44 283 305 347 22 26 29 44 54 60 58 45 38 48 60 70 88 88 88 71 54 28 345 325 321 320 319 319 327 331 336 335 325 317 294 287 271 267 251 246 243 236 239
215 18 2 323 264 27 349 84 270 282 234 332 14 40 43 44 62 56 41 64 68 69 63 61 65 60 45 27 9 347 335 325 314 310 310 318 320 328 329 323 305 291 276 267 250 242 237 239 225
53 20 37 48 80 1 216 135 274 225 182 175 120 65 86 85 71 68 80 71 60 61 58 47 48 35 15 2 354 355 353 336 322 314 311 310 308 318 325 324 317 297 284 277 271 256 255 254 252
60 50 339 348 5 223 238 102 241 242 227 175 167 162 130 91 100 109 96 85 84 65 48 40 17 12 359 346 333 338 338 335 333 330 328 323 310 309 312 315 314 309 293 287 284 277 268 262 245
7 137 152 261 236 273 329 253 264 210 183 146 179 158 137 136 170 160 124 102 64 30 13 24 22 1 344 333 326 325 323 324 319 317 315 319 318 307 306 303 309 315 315 298 290 275 275 270 261
229 250 199 155 22 64 237 289 324 236 287 206 205 196 251 244 246 322 86 13 360 346 336 321 328 322 321 327 328 329 328 321 314 308 310 310 313 315 309 300 299 306 317 322 301 279 277 274 271
165 172 18 9 280 259 276 269 235 205 232 232 245 242 276 261 283 241 10 356 342 332 315 305 314 315 317 318 323 327 327 321 312 309 311 313 302 310 309 301 299 308 311 316 311 281 273 265 266
330 330 56 166 157 219 274 254 220 211 203 213 246 252 264 254 150 21 331 335 333 327 310 293 292 292 297 300 305 312 319 321 312 310 309 315 304 300 305 302 298 306 306 308 305 281 274 260 262
158 228 147 132 271 228 187 264 253 211 196 208 231 256 229 115 292 300 305 314 314 299 304 296 288 280 288 301 307 311 314 316 308 307 311 312 306 298 305 306 292 300 302 300 301 273 271 267 261